|
Vanguard 3 - Orbit
|
Holcomb Observatory;
12:46:46
| Home | Info | Passes |
|
View from above orbital plane
|
View from above satellite
|
Ground track
|
The orbit data is extracted from the following two-line orbital elements,
1 00020U 59007A 13138.11601113 .00000523 00000-0 19858-3 0 2226
2 00020 033.3592 027.4389 1681825 239.6596 102.7146 11.52668198931431
| Epoch (UTC): | 18 May 2013 02:47:03 |
| Eccentricity: | 0.1681825 |
| inclination: | 33.3592° |
| perigee height: | 508 km |
| apogee height: | 3292 km |
| right ascension of ascending node: | 27.4389° |
| argument of perigee: | 239.6596° |
| revolutions per day: | 11.52668198 |
| mean anomaly at epoch: | 102.7146° |
| orbit number at epoch: | 93143 |
The dashed part of the orbit path shows where the satellite is in the earth's shadow,
|
|